Location: Waco, TX
(31.5480°N, 97.1670°W)
Time: 23:48:00
(UTC-05:00)

ISS - Pass Details

Date: 21 September 2017
Orbit: 401 x 408 km, 51.6° (Epoch: 22 October)

Event Time Altitude Azimuth Distance (km) Brightness Sun altitude
Rises 22:12:34 0° 244° (WSW) 2,313 - -35.2°
Reaches altitude 10° 22:14:46 10° 255° (WSW) 1,458 - -35.6°
Maximum altitude 22:17:44 31° 320° (NW) 733 - -36.2°
Drops below altitude 10° 22:20:44 10° 25° (NNE) 1,469 - -36.7°
Sets 22:22:58 0° 36° (NE) 2,333 - -37.2°
